Weather in Nizhniye Khalby

Russia / Khabarovsk Krai     50°47′50″N   137°55′36″E
temp.,
°C
wind,
m/s
gust,
m/s
humid.,
%
clouds,
%
prec.,
mm/h
press.,
hPa
HPBL,
m
27 february, sat
sat2701:00−19s2297100 0.1 103027
04:00−19s2397100 0.2 103135
07:00−20s2396100 0.1 103134
10:00−16s4888100 0.1 1030602
13:00−13ssw51085100 0.1 1028771
16:00−11ssw51083100 0.1 1025845
19:00−14sse348899 0.0 102491
22:00−12sse258697 0.0 1021173
28 february, sun
sun2801:00−12s2393100 0.5 1016116
04:00−10ssw41395100 2.8 1012927
07:00−11ssw31395100 0.4 1012805
10:00−10sw51190100 0.8 1011650
13:00−7sw4687100 0.1 1011584
16:00−7sw4787100 0.2 1011570
19:00−10w3793100 0.1 1015200
22:00−15w2771100 0.2 1018202
1 march, mon
mon101:00−18wsw238274 0.0 102049
04:00−21s228684 0.0 102222
07:00−23ssw228149 0.0 102320
10:00−19sw269174 0.1 1025618
13:00−17sw5685100 0.1 1024874
16:00−16sw5784100 0.3 1024870
19:00−20ssw349486 0.1 102576
22:00−23se119158 0.1 102720
2 march, tue
tue201:00−25s117638 0.0 102720
04:00−24se117769 0.0 102820
07:00−25s2296100 0.1 103028
10:00−22ssw368997 0.1 1029492
13:00−18sw4680100 0.0 1028845
16:00−17wsw357489 0.0 1027845
19:00−22ssw239129 0.0 102930
22:00−25sse239026 0.0 103021
3 march, wed
wed301:00−26sse22910 0.0 102920
04:00−26sse129532 0.0 102919
07:00−27s229597 0.0 102820
10:00−21ssw368994 0.0 1026426
13:00−17ssw488395 0.0 1023783
16:00−14ssw6117997 0.1 1019874
19:00−16s4118385 0.0 1018479
22:00−15s3118693 0.0 1016551